Regional Weather Roundup
Issued by NWS

Home | Current Version | Previous Version | Text Only | Print | Product List | Glossary Off
Versions: 1 2 3 4 5 6 7 8 9 10 11 12 13 14 15 16 17 18 19 20 21 22 23 24 25 26 27 28 29 30 31 32 33 34 35 36 37 38 39 40 41 42 43 44 45 46 47 48 49 50

000
ASUS43 KLOT 251204
RWRIL

ILLINOIS REGIONAL WEATHER ROUNDUP
NATIONAL WEATHER SERVICE CHICAGO/ROMEOVILLE IL
700 AM CDT THU AUG 25 2016

NOTE: "FAIR" INDICATES FEW OR NO CLOUDS BELOW 12,000 FEET WITH NO
SIGNIFICANT WEATHER AND/OR OBSTRUCTIONS TO VISIBILITY.

* THESE STATIONS ARE NOT UNDER NWS QUALITY CONTROL. THEY ALSO MAY NOT
  REPORT WEATHER SUCH AS PRECIPITATION OR FOG.

ILZ001-002-007-009-015-016-024-251300-
NORTHWEST ILLINOIS

CITY           SKY/WX    TMP DP  RH WIND       PRES   REMARKS
MOLINE         CLOUDY    72  69  90 W3        30.02R
6HR MIN TEMP:  71; 6HR MAX TEMP:  72; 6HR PCP:  0.04;

STERLING*      PTCLDY    70  68  93 VRB5      30.01R
SAVANNA*       MOCLDY    69  65  89 N7        30.01R
$$

ILZ003-004-008-010-011-017-018-251300-
NORTH CENTRAL ILLINOIS

CITY           SKY/WX    TMP DP  RH WIND       PRES   REMARKS
ROCKFORD       CLOUDY    70  67  90 NW3       30.01R
6HR MIN TEMP:  69; 6HR MAX TEMP:  74; 6HR PCP:  0.20;

FREEPORT*      CLOUDY    66  64  94 CALM      30.03R
ROCHELLE*      MOCLDY    68  67  96 CALM      30.02R
$$

ILZ005-006-012>014-019>023-251300-
NORTHEAST ILLINOIS

CITY           SKY/WX    TMP DP  RH WIND       PRES   REMARKS
CHICAGO-OHARE  CLOUDY    72  70  93 SW6       29.97R
6HR MIN TEMP:  70; 6HR MAX TEMP:  76; 6HR PCP:  0.12;

CHICAGO-MIDWAY CLOUDY    73  70  90 SW5       29.97R
6HR MIN TEMP:  73; 6HR MAX TEMP:  77; 6HR PCP:  0.07;

AURORA         CLOUDY    72  69  90 SW7       30.00R
6HR MIN TEMP:  71; 6HR MAX TEMP:  74; 6HR PCP: TRACE;

LANSING*       CLOUDY    69  66  92 S3        30.00R
JOLIET*        CLOUDY    72  71  98 SW6       30.01R
WAUKEGAN       CLOUDY    69  68  96 NW3       29.97R
6HR MIN TEMP:  69; 6HR MAX TEMP:  76; 6HR PCP:  0.34;

DUPAGE AIRPORT CLOUDY    71  68  90 SW9       29.98S
6HR MIN TEMP:  70; 6HR MAX TEMP:  74; 6HR PCP:  0.03;

KANKAKEE*      CLOUDY    70  69  98 CALM      30.02R
WHEELING       CLOUDY    72  69  90 S6        29.98S
6HR MIN TEMP:  72; 6HR MAX TEMP:  77; 6HR PCP:  0.01;

MORRIS*        CLOUDY    71  70  96 CALM      29.99R
ROMEOVILLE*    CLOUDY    71  69  94 SW8       30.00R
NORTHERLY ISL    N/A     73  69  87 W5          N/A
$$

LMZ740>746-251300-
SOUTHERN LAKE MICHIGAN

STATION/POSITION SKY/WX   TEMP    WIND        PRES    VSBY  WAVE
                          AIR SEA DIR/SP/G                  HT/PER
                          (F)     (DEG/KT/KT) (MB)    (MI)  (FT/S)
SOUTHERN BUOY              72 74   20/  6/  6 1013.7          2/ 4
WILMETTE HARBOR            69 68   CALM  /  2   N/A           0
HARRISON CRIB              74     240/  8/  9   N/A
BURNHAM HARBOR             73     210/  4/  8   N/A
CALUMET HARBOR             72     210/  5/  7 1014.3S
BURNS HARBOR               71     180/  5/ 10 1014.9F
MICHIGAN CITY              72     180/  9/ 10   N/A
MICHIGAN CITY 6N           73 74  210/  8/ 12   N/A           2/ 3
ST. JOSEPH                 74 74  220/ 14/ 17 1014.6F         3/ 3
$$

ILZ025>027-034>036-040-047-049-050-058-095>099-251300-
WEST-CENTRAL ILLINOIS

CITY           SKY/WX    TMP DP  RH WIND       PRES   REMARKS
QUINCY         PTCLDY    69  69 100 SW3       30.04R
GALESBURG*     CLOUDY    69  68  98 W7        30.04R FOG
MACOMB*        CLOUDY    70  70  99 SW5       30.06S
JACKSONVILLE*  CLEAR     68  67  96 CALM      30.04F
PITTSFIELD*    CLEAR     69  68  99 CALM      30.05F
$$

ILZ028>032-037-038-041>044-048-051>054-059>061-251300-
CENTRAL ILLINOIS

CITY           SKY/WX    TMP DP  RH WIND       PRES   REMARKS
PONTIAC        PTCLDY    70  70 100 SW5       30.03R
BLOOMINGTON    CLEAR     67  66  97 SW7       30.05R
DECATUR        CLEAR     68  66  93 S7        30.05R
PEORIA         CLOUDY    71  71 100 SW10      30.04R FOG
6HR MIN TEMP:  69; 6HR MAX TEMP:  72; 6HR PCP:  0.16;

LACON*         PTCLDY    71  69  96 CALM      30.00S
LINCOLN*       CLOUDY    68  68 100 CALM      30.05R
SPRINGFIELD    CLEAR     68  67  96 SW5       30.05R
6HR MIN TEMP:  68; 6HR MAX TEMP:  80; 6HR PCP:  0.30;

TAYLORVILLE    CLEAR     66  66  99 SW3       30.06R
6HR MIN TEMP:  65; 6HR MAX TEMP:  76; 6HR PCP:  0.03;

$$

ILZ033-039-045-046-055>057-062-063-251300-
EAST-CENTRAL ILLINOIS

CITY           SKY/WX    TMP DP  RH WIND       PRES   REMARKS
CHAMPAIGN      CLEAR     66  65  96 S5        30.05R
RANTOUL*       CLOUDY    69  68  98 SW3       30.04R
MATTOON        CLEAR     69  67  93 S7        30.04S
PARIS*         CLEAR     67  67 100 CALM      30.06R
$$

ILZ079-100>102-251300-
SOUTHWEST ILLINOIS

CITY           SKY/WX    TMP DP  RH WIND       PRES   REMARKS
ALTON          PTCLDY    70  68  94 CALM      30.06S
BELLEVILLE     CLEAR     71  71 100 SW2       30.05S
CAHOKIA*       CLEAR     73  70  90 CALM      30.05S
SPARTA*        CLEAR     74  72  95 S5        30.08S
$$

ILZ064>066-069>071-074>076-080>082-084>086-088>090-092>094-251300-
SOUTH-CENTRAL ILLINOIS

CITY           SKY/WX    TMP DP  RH WIND       PRES   REMARKS
CARBONDALE     PTCLDY    72  70  93 SW5       30.09S FOG
6HR MIN TEMP:  68; 6HR MAX TEMP:  80;

EFFINGHAM*       N/A     73  73 100 S3        30.07R FOG
MARION         CLEAR     75  75 100 S6        30.10S
MT. VERNON       N/A     73  68  83 CALM      30.08S VSB 1/4
CENTRALIA*     CLEAR     74  74  99 SW6       30.06S FOG
SALEM*         CLEAR     75  73  93 CALM      30.07S FOG
$$

ILZ067-068-072-073-078-083-087-091-251300-
SOUTHEAST ILLINOIS

CITY           SKY/WX    TMP DP  RH WIND       PRES   REMARKS
LAWRENCEVILLE  PTCLDY    75  74  96 S6        30.07R FOG
FLORA*         CLEAR     74  73  97 CALM      30.07S FOG
FAIRFIELD*     CLEAR     73  73 100 CALM      30.07R FOG
HARRISBURG*    CLEAR     73  73 100 SW3       30.09S FOG
ROBINSON*      CLEAR     73  73  99 SW3       30.07R FOG
CARMI*         CLEAR     73  73 100 CALM      30.08R FOG
$$

ABBREVIATIONS USED IN REMARKS
   TC - TEMPERATURE IN CELSIUS
  WCI - WIND CHILL INDEX
   HX - HEAT INDEX
  VSB - VISIBILITY
$$





USA.gov is the U.S. government's official web portal to all federal, state and local government web resources and services.